TimePDT,TemperatureF,Dew PointF,Humidity,Sea Level PressureIn,VisibilityMPH,Wind Direction,Wind SpeedMPH,Gust SpeedMPH,PrecipitationIn,Events,Conditions,WindDirDegrees,DateUTC
12:15 AM,67.3,49.8,53,30.11,10.0,WSW,3.5,-,N/A,,Clear,250,2013-08-17 07:15:00
12:35 AM,68.2,50.4,53,30.11,10.0,WSW,3.5,-,N/A,,Clear,250,2013-08-17 07:35:00
12:55 AM,67.1,50.4,55,30.11,10.0,West,5.8,-,N/A,,Clear,270,2013-08-17 07:55:00
1:15 AM,66.6,50.5,56,30.11,10.0,West,3.5,-,N/A,,Clear,260,2013-08-17 08:15:00
1:35 AM,66.2,50.7,57,30.11,10.0,Calm,Calm,-,N/A,,Clear,0,2013-08-17 08:35:00
1:55 AM,64.6,49.6,58,30.11,10.0,East,4.6,-,N/A,,Clear,100,2013-08-17 08:55:00
2:15 AM,63.7,49.3,59,30.10,10.0,East,5.8,-,N/A,,Clear,100,2013-08-17 09:15:00
2:35 AM,63.5,49.1,59,30.11,10.0,East,6.9,-,N/A,,Clear,90,2013-08-17 09:35:00
2:55 AM,62.8,48.7,60,30.11,10.0,East,4.6,-,N/A,,Clear,100,2013-08-17 09:55:00
3:15 AM,62.8,48.7,60,30.11,10.0,East,4.6,-,N/A,,Clear,100,2013-08-17 10:15:00
3:35 AM,61.7,48.7,62,30.11,10.0,East,5.8,-,N/A,,Clear,90,2013-08-17 10:35:00
3:55 AM,61.7,48.7,62,30.11,10.0,East,8.1,-,N/A,,Clear,90,2013-08-17 10:55:00
4:15 AM,61.7,48.9,63,30.12,10.0,East,6.9,-,N/A,,Clear,90,2013-08-17 11:15:00
4:35 AM,61.0,48.7,64,30.12,10.0,East,6.9,-,N/A,,Clear,90,2013-08-17 11:35:00
4:55 AM,60.8,48.7,64,30.11,10.0,East,5.8,-,N/A,,Clear,90,2013-08-17 11:55:00
5:15 AM,60.8,49.1,65,30.11,10.0,East,5.8,-,N/A,,Clear,90,2013-08-17 12:15:00
5:35 AM,59.2,48.6,68,30.12,10.0,East,6.9,-,N/A,,Clear,100,2013-08-17 12:35:00
5:55 AM,58.6,48.6,69,30.12,10.0,ESE,8.1,-,N/A,,Clear,110,2013-08-17 12:55:00
6:15 AM,58.5,48.6,70,30.13,10.0,ESE,10.4,-,N/A,,Clear,120,2013-08-17 13:15:00
6:35 AM,59.2,48.9,69,30.13,10.0,ESE,8.1,-,N/A,,Clear,110,2013-08-17 13:35:00
6:55 AM,59.5,48.4,67,30.13,10.0,East,4.6,-,N/A,,Clear,80,2013-08-17 13:55:00
7:15 AM,60.8,48.9,65,30.14,10.0,ESE,8.1,-,N/A,,Clear,110,2013-08-17 14:15:00
7:35 AM,62.6,49.3,62,30.13,10.0,ESE,8.1,-,N/A,,Clear,110,2013-08-17 14:35:00
7:55 AM,63.3,49.3,60,30.13,10.0,ESE,6.9,-,N/A,,Clear,110,2013-08-17 14:55:00
8:15 AM,65.1,49.5,57,30.14,10.0,East,5.8,-,N/A,,Clear,100,2013-08-17 15:15:00
8:35 AM,66.2,50.4,57,30.14,10.0,Calm,Calm,-,N/A,,Clear,0,2013-08-17 15:35:00
8:55 AM,67.1,50.5,55,30.14,10.0,Calm,Calm,-,N/A,,Clear,0,2013-08-17 15:55:00
9:15 AM,68.5,51.8,55,30.14,10.0,West,4.6,-,N/A,,Clear,270,2013-08-17 16:15:00
9:35 AM,71.4,51.6,50,30.14,10.0,West,5.8,-,N/A,,Clear,270,2013-08-17 16:35:00
9:55 AM,72.5,52.9,50,30.14,10.0,West,6.9,-,N/A,,Scattered Clouds,280,2013-08-17 16:55:00
10:15 AM,73.6,53.6,50,30.14,10.0,WNW,5.8,-,N/A,,Scattered Clouds,290,2013-08-17 17:15:00
10:35 AM,73.9,53.2,48,30.13,10.0,West,5.8,-,N/A,,Scattered Clouds,270,2013-08-17 17:35:00
10:55 AM,75.4,52.5,45,30.13,10.0,West,4.6,-,N/A,,Clear,260,2013-08-17 17:55:00
11:15 AM,77.9,52.7,41,30.12,10.0,West,4.6,-,N/A,,Clear,260,2013-08-17 18:15:00
11:35 AM,78.8,52.0,39,30.12,10.0,WSW,5.8,-,N/A,,Clear,240,2013-08-17 18:35:00
11:55 AM,81.1,51.1,35,30.10,10.0,West,4.6,-,N/A,,Clear,270,2013-08-17 18:55:00
12:15 PM,81.7,49.6,33,30.09,10.0,West,4.6,-,N/A,,Clear,280,2013-08-17 19:15:00
12:35 PM,83.5,47.8,29,30.08,10.0,WNW,4.6,-,N/A,,Clear,300,2013-08-17 19:35:00
12:55 PM,84.6,44.4,24,30.08,10.0,WNW,5.8,-,N/A,,Clear,290,2013-08-17 19:55:00
1:15 PM,86.2,46.9,25,30.07,10.0,WNW,9.2,-,N/A,,Clear,300,2013-08-17 20:15:00
1:35 PM,86.2,47.7,26,30.07,10.0,WNW,5.8,-,N/A,,Clear,300,2013-08-17 20:35:00
1:55 PM,86.7,46.9,25,30.05,10.0,West,5.8,-,N/A,,Clear,280,2013-08-17 20:55:00
2:15 PM,88.7,47.1,24,30.05,10.0,WNW,11.5,-,N/A,,Clear,300,2013-08-17 21:15:00
2:35 PM,88.2,46.9,24,30.04,10.0,NNW,8.1,-,N/A,,Clear,330,2013-08-17 21:35:00
2:55 PM,88.9,46.8,23,30.03,10.0,NW,8.1,-,N/A,,Clear,320,2013-08-17 21:55:00
3:15 PM,89.6,45.9,22,30.02,10.0,WNW,11.5,17.3,N/A,,Clear,290,2013-08-17 22:15:00
3:35 PM,89.6,46.0,22,30.01,10.0,WNW,11.5,-,N/A,,Clear,290,2013-08-17 22:35:00
3:55 PM,88.9,45.7,22,30.01,10.0,West,13.8,24.2,N/A,,Clear,280,2013-08-17 22:55:00
4:15 PM,86.5,47.1,25,30.01,10.0,West,16.1,21.9,N/A,,Clear,280,2013-08-17 23:15:00
4:35 PM,86.9,48.0,26,30.01,10.0,WNW,18.4,21.9,N/A,,Clear,290,2013-08-17 23:35:00
4:55 PM,82.9,48.7,30,30.03,10.0,NW,13.8,-,N/A,,Clear,320,2013-08-17 23:55:00
5:15 PM,82.6,49.1,31,30.04,10.0,NW,15.0,21.9,N/A,,Scattered Clouds,320,2013-08-18 00:15:00
5:35 PM,80.2,52.5,38,30.05,10.0,West,13.8,17.3,N/A,,Clear,260,2013-08-18 00:35:00
5:55 PM,79.0,53.1,40,30.05,10.0,West,15.0,-,N/A,,Clear,260,2013-08-18 00:55:00
6:15 PM,77.7,52.9,42,30.05,10.0,West,12.7,16.1,N/A,,Clear,260,2013-08-18 01:15:00
6:35 PM,79.9,52.2,38,30.04,10.0,West,11.5,-,N/A,,Clear,270,2013-08-18 01:35:00
6:55 PM,79.3,52.2,39,30.04,10.0,West,10.4,-,N/A,Rain,Light Rain,270,2013-08-18 01:55:00
7:15 PM,78.3,51.4,39,30.04,10.0,West,10.4,-,N/A,,Scattered Clouds,280,2013-08-18 02:15:00
7:35 PM,76.3,50.0,40,30.05,10.0,West,12.7,18.4,N/A,,Clear,270,2013-08-18 02:35:00
7:55 PM,74.3,50.4,43,30.06,10.0,West,9.2,-,N/A,,Clear,260,2013-08-18 02:55:00
8:15 PM,73.4,50.7,45,30.07,10.0,West,9.2,-,N/A,,Clear,260,2013-08-18 03:15:00
8:35 PM,72.0,51.1,48,30.07,10.0,WSW,5.8,-,N/A,,Clear,250,2013-08-18 03:35:00
8:55 PM,70.7,51.3,50,30.08,10.0,West,6.9,-,N/A,,Clear,260,2013-08-18 03:55:00
9:15 PM,70.3,51.8,52,30.09,10.0,West,8.1,-,N/A,,Clear,270,2013-08-18 04:15:00
9:35 PM,69.8,52.2,53,30.10,10.0,West,4.6,-,N/A,,Clear,270,2013-08-18 04:35:00
9:55 PM,70.2,52.3,53,30.10,10.0,NW,4.6,-,N/A,,Clear,320,2013-08-18 04:55:00
10:15 PM,69.1,51.8,54,30.11,10.0,NNW,5.8,-,N/A,,Clear,330,2013-08-18 05:15:00
10:35 PM,70.3,50.5,49,30.11,10.0,NNW,5.8,-,N/A,,Clear,330,2013-08-18 05:35:00
10:55 PM,70.7,50.2,48,30.12,10.0,North,5.8,-,N/A,,Clear,350,2013-08-18 05:55:00
11:15 PM,69.6,50.0,50,30.12,10.0,NNW,5.8,-,N/A,,Clear,330,2013-08-18 06:15:00
11:35 PM,68.2,50.0,52,30.12,10.0,NW,6.9,-,N/A,,Clear,320,2013-08-18 06:35:00
11:55 PM,68.2,50.4,53,30.13,10.0,NW,6.9,-,N/A,,Clear,320,2013-08-18 06:55:00